Tracking 18840 objects as of 20-November-2017
HD Live streaming from Space Station
objects crossing your sky now

FENGYUN 1C DEB

Track FENGYUN 1C DEB now!
10-day predictions


NORAD ID: 31260
Int'l Code: 1999-025BMS
Perigee: 774.7 km
Apogee: 851.9 km
Inclination: 98.9 °
Period: 101.0 minutes
Semi major axis: 7184 km
RCS: 0.0022 m2 (small)
Launch date: May 10, 1999
Source: People's Republic of China (PRC)
Launch site: Taiyaun Space Center, China (TSC)

Note: This is SATELLITE DEBRIS
aabbcc
Your satellite tracking list
Your tracking list is empty




NASA's NSSDC Master Catalog

Two Line Element Set (TLE):
1 31260U 99025BMS 17323.60531463 +.00000767 +00000-0 +33748-3 0  9999
2 31260 098.9355 081.0556 0053717 178.7016 250.3329 14.25686052551421
Source of the keplerian elements: AFSPC